Weather in Sumarokovo

Russia / Kostroma Oblast     58°12′24″N   41°47′47″E
temp.,
°C
wind,
m/s
gust,
m/s
humid.,
%
clouds,
%
prec.,
mm/h
press.,
hPa
HPBL,
m
12 april, mon
mon1200:00+3se119575 0.0 103410
03:00+4ese2297100 0.0 103644
06:00+3se37100100 0.0 1036133
09:00+5sse4899100 0.0 1037276
12:00+9sse478513 0.0 1037467
15:00+12se4674100 0.0 1036751
18:00+10se3986100 0.0 1034324
21:00+7se51491100 0.0 1034476
13 april, tue
tue1300:00+6se51493100 0.0 1033485
03:00+5sse41196100 0.1 1032386
06:00+5sse41098100 0.0 1031342
09:00+8sse4988100 0.0 1029311
12:00+14s5969100 0.0 1028551
15:00+16s51061100 0.0 1026911
18:00+14s41064100 0.0 1025329
21:00+10s41376100 0.0 1026230
14 april, wed
wed1400:00+8s3117772 0.0 1025186
03:00+7s3978100 0.0 1025145
06:00+7s3108033 0.0 1024162
09:00+13s4106253 0.0 1024369
12:00+16s5947100 0.0 1023801
15:00+17s584698 0.0 10211256
18:00+14sse4956100 0.0 1020288
21:00+10s31070100 0.0 1020194
15 april, thu
thu1500:00+9ssw3117286 0.0 1020173
03:00+7ssw3476100 0.0 102062
06:00+7ssw2278100 0.0 102012
09:00+12wsw1260100 0.0 1020246
12:00+15nnw115098 0.0 1020689
15:00+16n2250100 0.0 10191124
18:00+11nne5980100 0.0 1020475
21:00+8ne4985100 0.0 1022407
16 april, fri
fri1600:00+6nne498798 0.0 1022431
03:00+5ne4108697 0.0 1023468
06:00+5ne4984100 0.0 1024577
09:00+7ne585813 0.0 1025777
12:00+10ne573939 0.0 10261227
15:00+11ne57377 0.0 10271473
18:00+9ne58465 0.0 10281117
21:00+5ne311620 0.0 1030292